This is the latest recevied weather packets stored in our database for station/object F4FEB-13. If no packets are shown the sender has not sent any weather packets the latest 1 day(s).
| Time | Temp. | Humidity | Pressure | Rain* | Wind** | Luminosity | Snow |
|---|---|---|---|---|---|---|---|
| 1778025257 | 11.11° C | 81% | 1008.6 hPa | 0 mm | 0.89 m/s, 285° | - | - |
| 1778024957 | 11.11° C | 81% | 1008.7 hPa | 0 mm | 2.24 m/s, 248° | - | - |
| 1778024657 | 11.11° C | 81% | 1008.7 hPa | 0 mm | 2.24 m/s, 267° | - | - |
| 1778024357 | 11.11° C | 81% | 1008.7 hPa | 0 mm | 1.79 m/s, 232° | - | - |
| 1778024057 | 11.11° C | 82% | 1008.7 hPa | 0 mm | 1.34 m/s, 275° | - | - |
| 1778023757 | 10.56° C | 82% | 1008.8 hPa | 0 mm | 1.34 m/s, 251° | - | - |
| 1778023457 | 11.11° C | 82% | 1008.8 hPa | 0 mm | 2.68 m/s, 248° | - | - |
| 1778023157 | 11.11° C | 81% | 1008.8 hPa | 0 mm | 2.24 m/s, 279° | - | - |
| 1778022857 | 11.11° C | 81% | 1008.9 hPa | 0 mm | 1.34 m/s, 210° | - | - |
| 1778022557 | 10.56° C | 81% | 1008.8 hPa | 0 mm | 1.79 m/s, 281° | - | - |
| 1778022262 | 10.56° C | 82% | 1008.9 hPa | 0 mm | 0.89 m/s, 233° | - | - |
| 1778021957 | 10.56° C | 83% | 1008.8 hPa | 0 mm | 2.24 m/s, 240° | - | - |
| 1778021657 | 10.56° C | 82% | 1008.9 hPa | 0 mm | 1.34 m/s, 187° | - | - |
| 1778021357 | 10.56° C | 82% | 1008.8 hPa | 0 mm | 2.24 m/s, 250° | - | - |
| 1778021057 | 11.11° C | 81% | 1008.9 hPa | 0 mm | 1.34 m/s, 174° | - | - |
| 1778020757 | 11.11° C | 81% | 1008.9 hPa | 0 mm | 1.34 m/s, 220° | - | - |
| 1778020457 | 11.11° C | 81% | 1008.9 hPa | 0 mm | 3.13 m/s, 226° | - | - |
| 1778020157 | 11.11° C | 81% | 1008.9 hPa | 0 mm | 1.79 m/s, 212° | - | - |
| 1778019857 | 11.11° C | 80% | 1008.9 hPa | 0 mm | 4.02 m/s, 254° | - | - |
| 1778019557 | 11.11° C | 79% | 1008.9 hPa | 0 mm | 2.68 m/s, 274° | - | - |
| 1778019261 | 11.11° C | 78% | 1009 hPa | 0 mm | 2.68 m/s, 271° | - | - |
| 1778019257 | 11.11° C | 78% | 1009 hPa | 0 mm | 2.68 m/s, 271° | - | - |
| 1778018957 | 11.11° C | 78% | 1008.9 hPa | 0 mm | 3.58 m/s, 260° | - | - |
| 1778018657 | 11.11° C | 78% | 1008.8 hPa | 0 mm | 3.13 m/s, 253° | - | - |
| 1778018360 | 11.11° C | 79% | 1008.8 hPa | 0 mm | 3.13 m/s, 243° | - | - |
* Rain latest hour (hover to see other rain measurements)
** Current wind speed in m/s (hover to see current wind gust speed)